Jacksonville, IL

11:28 AM CDT on October 18, 2017 (GMT -0500)
Jacksonville Municipal

Weather History for KIJX - February, 2014

Change the Weather History Date:

Thursday, February 20, 2014

  Actual Average (KSPI) Record (KSPI)
Temperature  
Mean Temperature 48 °F -  
Max Temperature 62 °F 43 °F 76 °F (2017)
Min Temperature 35 °F 25 °F -9 °F (1885)
Degree Days  
Heating Degree Days 16    
Moisture  
Dew Point 35 °F    
Average Humidity 82    
Maximum Humidity 96    
Minimum Humidity 72    
Precipitation  
Precipitation 0.07 in - - ()
Sea Level Pressure  
Sea Level Pressure 29.57 in    
Wind  
Wind Speed 14 mph (South)    
Max Wind Speed 36 mph    
Max Gust Speed 53 mph    
Visibility 9 miles    
Events Rain , Thunderstorm    
Averages and records for this station are not official NWS values.
T = Trace of Precipitation, MM = Missing Value Source: NWS Daily Summary

Daily Weather History Graph

Daily Weather History Graph

Search for Another Location

Airport or City:

Trip Planner

Search our weather history database for the weather conditions in past years. The results will help you decide how hot, cold, wet, or windy it might be!

Date:

Astronomy

Feb. 20, 2014 Rise Set
Actual Time 6:46 AM CST 5:43 PM CST
Civil Twilight 6:19 AM CST 6:10 PM CST
Nautical Twilight 5:48 AM CST 6:41 PM CST
Astronomical Twilight 5:16 AM CST 7:13 PM CST
Moon 11:36 PM CST (2/20) 9:30 AM CST (2/20)
Length of Visible Light 11h 50m
Length of Day
10h 56m
Waning Gibbous, 70% of the Moon is Illuminated
Feb 20
Waning Gibbous
Feb 22
Last Quarter
Mar 1
New
Mar 8
First Quarter
Mar 16
Full

Hourly Weather History & Observations

Time (CST) Temp. Windchill Dew Point Humidity Pressure Visibility Wind Dir Wind Speed Gust Speed Precip Events Conditions
12:35 AM 36.7 °F 28.4 °F 32.9 °F 86% 29.76 in 10.0 mi East 12.7 mph - 0.01 in Rain , Thunderstorm Light Thunderstorms and Rain
12:55 AM 35.8 °F 26.5 °F 32.9 °F 89% 29.72 in 7.0 mi East 15.0 mph - 0.05 in Rain Light Rain
1:15 AM 36.3 °F 27.1 °F 32.5 °F 86% 29.70 in 10.0 mi East 15.0 mph - 0.01 in Rain , Thunderstorm Light Thunderstorms and Rain
1:35 AM 36.3 °F 28.4 °F 32.7 °F 87% 29.69 in 10.0 mi ESE 11.5 mph - 0.01 in Thunderstorm Overcast
1:55 AM 36.5 °F 27.8 °F 32.7 °F 86% 29.67 in 10.0 mi ESE 13.8 mph - 0.01 in   Overcast
2:35 AM 37.6 °F 30.0 °F 32.9 °F 83% 29.64 in 10.0 mi SE 11.5 mph - N/A Thunderstorm Overcast
2:55 AM 39.4 °F 32.3 °F 33.4 °F 79% 29.62 in 10.0 mi SE 11.5 mph - N/A   Mostly Cloudy
3:15 AM 40.8 °F 35.0 °F 34.3 °F 78% 29.60 in 10.0 mi SSE 9.2 mph - N/A   Mostly Cloudy
3:30 AM 42.8 °F 35.4 °F 35.4 °F 75% 29.60 in 10.0 mi SSE 15.0 mph 20.7 mph N/A   Mostly Cloudy
3:55 AM 43.0 °F 35.1 °F 36.5 °F 78% 29.59 in 7.0 mi SSE 17.3 mph 24.2 mph 0.01 in Rain , Thunderstorm Light Thunderstorms and Rain
4:15 AM 42.1 °F 37.1 °F 36.0 °F 79% 29.58 in 10.0 mi South 8.1 mph - N/A   Overcast
4:35 AM 42.1 °F 36.1 °F 36.3 °F 80% 29.58 in 10.0 mi South 10.4 mph - N/A   Mostly Cloudy
4:55 AM 42.4 °F 39.6 °F 36.5 °F 79% 29.59 in 10.0 mi WSW 4.6 mph - N/A   Mostly Cloudy
5:15 AM 39.7 °F - 35.8 °F 86% 29.58 in 10.0 mi Calm Calm - N/A Rain Light Rain
6:15 AM 39.9 °F - 36.3 °F 87% 29.56 in 10.0 mi Calm Calm - N/A Thunderstorm Overcast
6:55 AM 37.6 °F 33.1 °F 35.4 °F 92% 29.54 in 7.0 mi NE 5.8 mph - N/A   Mostly Cloudy
7:55 AM 37.4 °F 34.9 °F 35.8 °F 94% 29.52 in 5.0 mi East 3.5 mph - N/A   Mostly Cloudy
8:15 AM 36.7 °F 29.4 °F 34.7 °F 93% 29.51 in 5.0 mi East 10.4 mph - N/A   Overcast
8:55 AM 37.6 °F 30.5 °F 35.6 °F 93% 29.50 in 4.0 mi East 10.4 mph - N/A   Mostly Cloudy
9:15 AM 36.5 °F 28.7 °F 34.9 °F 94% 29.49 in 3.0 mi ENE 11.5 mph - N/A   Overcast
9:35 AM 36.7 °F 30.5 °F 35.6 °F 96% 29.49 in 2.5 mi East 8.1 mph - N/A   Overcast
9:55 AM 36.5 °F 30.3 °F 35.1 °F 95% 29.47 in 2.5 mi East 8.1 mph - N/A   Overcast
10:15 AM 37.0 °F 31.6 °F 36.0 °F 96% 29.45 in 1.8 mi East 6.9 mph - N/A   Mist
10:35 AM 43.5 °F 38.9 °F 42.3 °F 95% 29.43 in 3.0 mi SE 8.1 mph - N/A   Scattered Clouds
10:55 AM 52.2 °F - 49.3 °F 90% 29.41 in 7.0 mi South 13.8 mph 17.3 mph N/A   Scattered Clouds
12:15 PM 59.2 °F - 53.1 °F 80% 29.34 in 10.0 mi South 20.7 mph 29.9 mph N/A   Clear
1:15 PM 60.4 °F - 54.5 °F 81% 29.30 in 10.0 mi South 19.6 mph 29.9 mph N/A   Mostly Cloudy
2:35 PM 62.1 °F - 55.4 °F 79% 29.20 in 10.0 mi SSE 20.7 mph 32.2 mph N/A   Clear
5:15 PM 43.9 °F 33.2 °F 36.5 °F 75% 29.46 in 10.0 mi WSW 33.4 mph 52.9 mph N/A   Mostly Cloudy
5:35 PM 42.1 °F 30.4 °F 35.1 °F 76% 29.49 in 10.0 mi WSW 35.7 mph 44.9 mph N/A   Overcast
5:55 PM 40.8 °F 29.2 °F 33.4 °F 75% 29.52 in 10.0 mi WSW 32.2 mph 48.3 mph N/A   Overcast
6:15 PM 40.5 °F 29.3 °F 32.0 °F 72% 29.54 in 10.0 mi WSW 28.8 mph 46.0 mph N/A   Overcast
6:35 PM 40.1 °F 29.7 °F 32.0 °F 73% 29.57 in 10.0 mi WSW 24.2 mph 41.4 mph N/A   Overcast
6:55 PM 40.1 °F 29.7 °F 32.0 °F 73% 29.59 in 10.0 mi WSW 24.2 mph 40.3 mph N/A   Overcast
7:15 PM 40.1 °F 29.7 °F 32.0 °F 73% 29.60 in 10.0 mi WSW 24.2 mph 32.2 mph N/A   Overcast
7:35 PM 39.6 °F 29.2 °F 31.5 °F 73% 29.62 in 10.0 mi WSW 23.0 mph 35.7 mph N/A   Overcast
7:55 PM 39.2 °F 28.3 °F 31.1 °F 73% 29.63 in 10.0 mi WSW 25.3 mph 31.1 mph N/A   Mostly Cloudy
8:15 PM 38.3 °F 27.6 °F 30.6 °F 74% 29.64 in 10.0 mi WSW 23.0 mph 32.2 mph N/A   Scattered Clouds
8:35 PM 37.8 °F 27.1 °F 30.2 °F 74% 29.65 in 10.0 mi WSW 21.9 mph 31.1 mph N/A   Clear
8:55 PM 37.4 °F 28.2 °F 29.8 °F 74% 29.65 in 10.0 mi WSW 16.1 mph 27.6 mph N/A   Clear
9:15 PM 36.3 °F 27.1 °F 29.8 °F 77% 29.65 in 10.0 mi SW 15.0 mph - N/A   Clear
9:35 PM 36.5 °F 26.7 °F 30.0 °F 77% 29.66 in 10.0 mi SW 17.3 mph 25.3 mph N/A   Clear
9:55 PM 36.5 °F 26.3 °F 30.2 °F 78% 29.66 in 10.0 mi SW 18.4 mph 26.5 mph N/A   Clear
10:15 PM 36.5 °F 26.7 °F 30.2 °F 78% 29.65 in 10.0 mi SW 17.3 mph 23.0 mph N/A   Clear
10:35 PM 36.1 °F 26.2 °F 30.2 °F 79% 29.64 in 10.0 mi WSW 17.3 mph 21.9 mph N/A   Clear
10:55 PM 36.5 °F 27.0 °F 30.2 °F 78% 29.62 in 10.0 mi WSW 16.1 mph - N/A   Clear
11:15 PM 36.1 °F 26.5 °F 30.2 °F 79% 29.61 in 10.0 mi SW 16.1 mph - N/A   Clear
11:35 PM 36.5 °F 26.7 °F 29.7 °F 76% 29.60 in 10.0 mi WSW 17.3 mph 28.8 mph N/A   Clear
11:55 PM 36.1 °F 27.3 °F 30.0 °F 78% 29.60 in 10.0 mi WSW 13.8 mph 21.9 mph N/A   Clear